Regional Weather Roundup
Issued by NWS

Home | Current Version | Previous Version | Text Only | Print | Product List | Glossary Off
Versions: 1 2 3 4 5 6 7 8 9 10 11 12 13 14 15 16 17 18 19 20 21 22 23 24 25 26 27 28 29 30 31 32 33 34 35 36 37 38 39 40 41 42 43 44 45 46 47 48 49 50

000
ASUS44 KMEG 262100
RWRTN
TENNESSEE HOURLY STATE WEATHER ROUNDUP
NATIONAL WEATHER SERVICE MEMPHIS TN
400 PM CDT SUN APR 26 2015

TNZ002-004-019-021-049-052-054-088>092-262200-
WEST TENNESSEE

CITY           SKY/WX    TMP DP  RH WIND       PRES   REMARKS
MEMPHIS INTL   CLOUDY    63  53  70 N6        29.85S
NWS MEMPHIS      N/A     62 N/A N/A MISG        N/A
JACKSON        CLOUDY    58  50  75 NE10      29.85S
DYERSBURG      CLOUDY    57  39  51 NE5       29.88S
UNION CITY     PTSUNNY   57  32  38 N8        29.86S
PARIS          CLOUDY    54  46  76 NE8       29.87R
LEXINGTON      CLOUDY    54  48  82 N7        29.84S
SAVANNAH       CLOUDY    57  32  38 N10       29.84R
$$

TNZ008-025-027-028-033-062-065-066-262200-
NORTH MIDDLE TENNESSEE

CITY           SKY/WX    TMP DP  RH WIND       PRES   REMARKS
NASHVILLE      CLOUDY    56  47  71 NE8       29.84S
CLARKSVILLE    CLOUDY    59  47  64 N7        29.84F
COOKEVILLE     CLOUDY    52  48  87 N6        29.81S
CROSSVILLE     CLOUDY    51  46  83 N9        29.80S
$$

TNZ061-075-076-078-094-096-097-262200-
SOUTH MIDDLE TENNESSEE

CITY           SKY/WX    TMP DP  RH WIND       PRES   REMARKS
FAYETTEVILLE   CLOUDY    55  50  82 N12       29.80R
TULLAHOMA      CLOUDY    52  46  82 N9        29.82S
WINCHESTER     CLOUDY    57  52  82 N10       29.80R
MCMINNVILLE    CLOUDY    52  50  93 N9        29.81F
COLUMBIA       CLOUDY    55  32  41 N7        29.82S
SHELBYVILLE    CLOUDY    55  50  82 N12       29.83S
$$

TNZ017-018-042-046-047-262200-
NORTHEAST TENNESSEE

CITY           SKY/WX    TMP DP  RH WIND       PRES   REMARKS
TRI CITIES     CLOUDY    58  47  66 N7        29.73S
ELIZABETHTON   CLOUDY    55  46  71 VRB3      29.72R
$$

TNZ012-013-036-069-073-074-262200-
CENTRAL EAST TENNESSEE

CITY           SKY/WX    TMP DP  RH WIND       PRES   REMARKS
KNOXVILLE      CLOUDY    60  49  66 N13       29.74R
OAK RIDGE      CLOUDY    59  48  67 N7        29.77S
GATLINBURG     CLOUDY    57  48  72 W7        29.74R
$$

TNZ083-085-099-262200-
SOUTHEAST TENNESSEE

CITY           SKY/WX    TMP DP  RH WIND       PRES   REMARKS
CHATTANOOGA    PTSUNNY   67  52  58 NW17      29.74R
$$

SKY/WX REPORTED AS FAIR MEANS FEW OR NO CLOUDS BELOW
12 THOUSAND FEET.




USA.gov is the U.S. government's official web portal to all federal, state and local government web resources and services.